Tiempo atmosférico en la estación meteorológica de Villalón De Campos, Valladolid (763 m.)



Fecha
DESCASC
Temp. máxima en grados centígrados (hora)
DESCASC
Temp. mínima en grados centígrados (hora)
DESCASC
Temp. media en grados centígrados
DESCASC
Racha de viento máxima en m/sg (hora)
DESCASC
Velocidad máxima media en intervalos de 10 minutos(hora)
DESCASC
Precipitaciones diarias en mm
DESCASC
Precipitaciones de 00:00 a 06:00 en mm
DESCASC
Precipitaciones de 06:00 a 12:00 en mm
DESCASC
Precipitaciones de 12:00 a 18:00 en mm
DESCASC
Precipitaciones de 18:00 a 24:00 en mm
DESCASC
08-12-2019 7.8 (17:10) 1.4 (03:10) 4.6 5.83 (15:10) 4.17 (14:50) 2.4 0 0.2 2.2 0
07-12-2019 10.2 (16:10) -0.6 (07:30) 4.8 3.06 (22:10) 2.22 (22:50) 0 0 0 0 0
06-12-2019 11 (16:00) -0.8 (08:10) 5.1 5.28 (00:20) 2.78 (00:20) 0 0 0 0 0
05-12-2019 9.8 (16:00) -0.5 (-00:0) 4.7 12.22 (14:00) 5.83 (09:50) 0 0 0 0 0
04-12-2019 10.6 (15:40) -0.4 (06:00) 5.1 6.67 (00:10) 3.61 (00:10) 0 0 0 0 0
03-12-2019 5.6 (14:50) 0.1 (00:00) 2.8 10 (13:50) 5.28 (11:40) 0 0 0 0 0
02-12-2019 8.5 (14:00) 1.6 (00:00) 5.1 15.28 (14:50) 8.06 (12:50) 0 0 0 0 0
01-12-2019 7 (15:20) 4.1 (00:00) 5.5 7.5 (21:40) 5.56 (01:00) 9 2 5.8 1 0.2
30-11-2019 12.4 (12:20) 4.3 (00:00) 8.3 17.5 (12:10) 10.83 (11:20) 6.8 0.6 1.6 4.6 0
29-11-2019 14.1 (14:40) 7.5 (00:00) 10.8 10.83 (00:10) 8.33 (00:30) 2.8 0 0 0 2.8
28-11-2019 11.5 (16:20) 7.5 (00:10) 9.5 17.22 (13:10) 11.11 (15:20) 3.8 0.2 0 2.4 1.2
27-11-2019 9.8 (13:30) 5.9 (00:00) 7.9 17.78 (11:10) 11.67 (11:20) 0.4 0 0 0.4 0
26-11-2019 12.8 (15:00) 7.9 (00:00) 10.4 20.28 (17:10) 12.22 (20:30) 30 0 1.4 26.8 1.8
25-11-2019 12.8 (14:00) 7.3 (22:50) 10.1 13.89 (01:40) 10.83 (01:40) 0.2 0.2 0 0 0
24-11-2019 8 (14:10) 1.8 (00:00) 4.9 10.28 (15:10) 7.5 (05:20) 1 0 0 0 1
23-11-2019 9.8 (16:10) 2.8 (00:00) 6.3 18.61 (03:10) 11.67 (02:00) 0 0 0 0 0
22-11-2019 12.8 (15:40) 4.4 (00:00) 8.6 17.78 (15:20) 13.06 (15:10) 10.2 2.8 4 3.2 0.2
21-11-2019 9.9 (16:10) 3.8 (00:00) 6.8 11.11 (14:10) 7.22 (02:50) 0.2 0 0.2 0 0
20-11-2019 6.2 (15:30) 3.5 (03:40) 4.8 8.89 (13:10) 6.11 (22:20) 9.2 0.2 3.6 5.2 0.2
19-11-2019 7 (15:00) -2.5 (-00:0) 2.3 4.72 (16:10) 2.78 (16:40) 0 0 0 0 0
18-11-2019 10.5 (16:10) -1.1 (-00:0) 4.7 6.67 (01:10) 4.44 (01:10) 0 0 0 0 0
17-11-2019 10.1 (16:10) 1.1 (00:00) 5.6 13.33 (15:40) 9.44 (15:40) 1.4 0 1.4 0 0
16-11-2019 7.8 (15:20) -0.6 (-00:0) 3.6 11.67 (12:10) 8.33 (12:50) 0 0 0 0 0
15-11-2019 7 (15:10) 0.3 (00:00) 3.7 13.61 (11:10) 8.89 (12:50) 0.4 0.4 0 0 0
14-11-2019 6.9 (02:00) 1.5 (00:00) 4.2 18.61 (02:10) 12.22 (01:50) 8.8 4 0 4.6 0.2
13-11-2019 13.8 (14:50) 5.4 (00:00) 9.6 15 (00:30) 11.39 (00:40) 2.2 2 0.2 0 0
12-11-2019 10.2 (14:30) 2.1 (00:00) 6.1 14.72 (23:10) 10.83 (20:10) 2.4 0 0 0.4 2
11-11-2019 13 (14:10) 2 (23:10) 7.5 9.72 (14:30) 6.39 (14:30) 0 0 0 0 0

Gráficas

Temp. máximas Temp. mínimas Temp. medias Precipitaciones Rachas de viento máximas Velocidades máximas media en intervalos de 10 minutos

Datos horarios

Fecha y hora oficial Temperatura (ºC) Velocidad del viento (km/h) Dirección del viento Racha (km/h) Dirección de racha Precipitación (mm) Presión (hPa) Tendencia (hPa) Humedad (%)
2019-12-10 23:00:00 1.8 3 Noroeste 10 Sur 0 -- -- 100
2019-12-10 22:00:00 2.4 5 Sur 8 Sur 0 -- -- 100
2019-12-10 21:00:00 3.1 5 Sudeste 8 Sudeste 0 -- -- 100
2019-12-10 20:00:00 3.7 4 Noroeste 12 Noroeste 0 -- -- 100
2019-12-10 19:00:00 4.2 5 Oeste 8 Sudoeste 0 -- -- 100
2019-12-10 18:00:00 4.5 3 Sur 9 Sur 0 -- -- 100
2019-12-10 17:00:00 4.6 5 Sur 12 Sur 0 -- -- 100
2019-12-10 16:00:00 4.3 4 Sur 12 Sudeste 0 -- -- 100
2019-12-10 15:00:00 3.9 4 Sur 10 Sudoeste 0 -- -- 100
2019-12-10 14:00:00 3.2 5 Sur 10 Sur 0 -- -- 100
2019-12-10 13:00:00 2.7 4 Sur 8 Sudoeste 0 -- -- 100
2019-12-10 12:00:00 1.4 4 Sur 8 Sudeste 0 -- -- 100
2019-12-10 11:00:00 -0.1 5 Sur 9 Sudeste 0 -- -- 100
2019-12-10 10:00:00 -0.6 2 Sudeste 8 Noroeste 0 -- -- 100
2019-12-10 09:00:00 -1.5 4 Norte 8 Norte 0 -- -- 100
2019-12-10 08:00:00 -1.2 3 Norte 6 Este 0 -- -- 100
2019-12-10 07:00:00 -1.1 0 Calma 6 Este 0 -- -- 100
2019-12-10 06:00:00 -1 3 Este 5 Este 0 -- -- 100
2019-12-10 05:00:00 -0.8 3 Norte 6 Sudeste 0 -- -- 100
2019-12-10 04:00:00 0.8 3 Sudeste 6 Este 0 -- -- 100
2019-12-10 03:00:00 0.6 3 Este 9 Este 0 -- -- 100
2019-12-10 02:00:00 -0.1 3 Nordeste 4 Norte 0 -- -- 100
2019-12-10 01:00:00 -0.6 3 Norte 6 Este 0 -- -- 100
2019-12-10 00:00:00 0.1 5 Este 9 Este 0 -- -- 100
2019-12-09 23:00:00 0.6 2 Norte 5 Oeste 0 -- -- 100
2019-12-09 22:00:00 1.5 2 Norte 4 Norte 0 -- -- 100
2019-12-09 21:00:00 2 2 Noroeste 5 Sudoeste 0 -- -- 100
2019-12-09 20:00:00 2.9 3 Nordeste 9 Sudoeste 0 -- -- 99
2019-12-09 19:00:00 3.6 2 Sur 5 Sudoeste 0 -- -- 97
2019-12-09 18:00:00 6.2 2 Norte 10 Oeste 0 -- -- 92
2019-12-09 17:00:00 7.6 3 Noroeste 10 Noroeste 0 -- -- 89
2019-12-09 16:00:00 7.7 5 Oeste 11 Sudoeste 0 -- -- 83
2019-12-09 15:00:00 7.7 8 Oeste 13 Oeste 0 -- -- 82
2019-12-09 14:00:00 6.7 9 Oeste 13 Sudoeste 0 -- -- 94
2019-12-09 13:00:00 6.5 7 Sudoeste 15 Oeste 0 -- -- 100
2019-12-09 12:00:00 4.7 11 Sudoeste 14 Sudoeste 0 -- -- 100
2019-12-09 11:00:00 3.1 4 Noroeste 26 Oeste 0 -- -- 100
2019-12-09 10:00:00 2.8 19 Oeste 30 Sudoeste 0 -- -- 100
2019-12-09 09:00:00 2.8 22 Sudoeste 28 Sudoeste 0 -- -- 100
2019-12-09 08:00:00 2.9 15 Sudoeste 23 Sudoeste 0 -- -- 100
2019-12-09 07:00:00 3.2 15 Sudoeste 22 Sudoeste 0 -- -- 100
2019-12-09 06:00:00 3.9 17 Sudoeste 23 Sudoeste 0 -- -- 100
2019-12-09 05:00:00 4.3 13 Sudoeste 17 Sudoeste 0 -- -- 100
2019-12-09 04:00:00 2.7 15 Sudoeste 21 Sudoeste 0 -- -- 100
2019-12-09 03:00:00 1.7 8 Sudoeste 13 Sudoeste 0 -- -- 100
2019-12-09 02:00:00 2.1 8 Oeste 14 Sudoeste 0 -- -- 100
2019-12-09 01:00:00 2.8 9 Oeste 13 Oeste 0 -- -- 100
2019-12-09 00:00:00 4.7 8 Noroeste 13 Noroeste 0 -- -- 100
2019-12-08 23:00:00 5.4 4 Noroeste 12 Noroeste 0 -- -- 100
2019-12-08 22:00:00 6 7 Norte 18 Noroeste 0 -- -- 100
2019-12-08 21:00:00 6.5 9 Norte 13 Noroeste 0 -- -- 100
2019-12-08 20:00:00 6.6 8 Noroeste 15 Noroeste 0 -- -- 100
2019-12-08 19:00:00 7.1 7 Noroeste 10 Norte 0 -- -- 100
2019-12-08 18:00:00 7.7 9 Oeste 12 Oeste 0 -- -- 100
2019-12-08 17:00:00 7.7 8 Oeste 12 Oeste 0.2 -- -- 100
2019-12-08 16:00:00 7.4 13 Oeste 21 Sudoeste 0 -- -- 100
2019-12-08 15:00:00 7.2 14 Sudoeste 19 Sudoeste 0 -- -- 100
2019-12-08 14:00:00 6.6 13 Oeste 16 Sudoeste 0.4 -- -- 100
2019-12-08 13:00:00 6 11 Sudoeste 14 Sudoeste 1.6 -- -- 100
2019-12-08 12:00:00 5.1 10 Oeste 13 Oeste 0.2 -- -- 100
2019-12-08 11:00:00 4.4 9 Sudoeste 12 Sudoeste 0 -- -- 100
2019-12-08 10:00:00 3.6 8 Sudoeste 14 Sudoeste 0 -- -- 100
2019-12-08 09:00:00 2.6 5 Sur 12 Sur 0 -- -- 100
2019-12-08 08:00:00 2.4 6 Sur 12 Sur 0 -- -- 100
2019-12-08 07:00:00 2 6 Sur 11 Sudeste 0 -- -- 100
2019-12-08 06:00:00 2.1 4 Oeste 10 Oeste 0 -- -- 100
2019-12-08 05:00:00 2.1 5 Oeste 7 Oeste 0 -- -- 100
2019-12-08 04:00:00 1.6 2 Sudeste 6 Sudeste 0 -- -- 100
2019-12-08 03:00:00 1.5 4 Sur 12 Sudeste 0 -- -- 100
2019-12-08 02:00:00 2.4 7 Sudeste 9 Sudeste 0 -- -- 100
2019-12-08 01:00:00 2.7 3 Este 10 Este 0 -- -- 100
2019-12-08 00:00:00 3.2 3 Este 8 Sudeste 0 -- -- 100
2019-12-07 23:00:00 3 3 Este 11 Sudeste 0 -- -- 100
2019-12-07 22:00:00 3.9 6 Sudeste 10 Este 0 -- -- 100
2019-12-07 21:00:00 3.6 4 Este 9 Este 0 -- -- 100
2019-12-07 20:00:00 4.1 3 Nordeste 7 Este 0 -- -- 100
2019-12-07 19:00:00 3.8 2 Oeste 9 Noroeste 0 -- -- 99
2019-12-07 18:00:00 6.3 0 Calma 6 Sudeste 0 -- -- 95
2019-12-07 17:00:00 9.5 5 Sudeste 9 Sur 0 -- -- 86
2019-12-07 16:00:00 9.9 3 Sur 9 Sur 0 -- -- 84
2019-12-07 15:00:00 7.6 4 Sur 6 Sur 0 -- -- 96
2019-12-07 14:00:00 6.2 4 Sudoeste 10 Sur 0 -- -- 99
2019-12-07 13:00:00 5.5 3 Sudeste 6 Sudoeste 0 -- -- 100
2019-12-07 12:00:00 4.2 2 Oeste 4 Sudeste 0 -- -- 100
2019-12-07 11:00:00 2.5 3 Este 9 Sudeste 0 -- -- 100
2019-12-07 10:00:00 1.1 3 Norte 5 Nordeste 0 -- -- 100
2019-12-07 09:00:00 0.2 2 Nordeste 4 Nordeste 0 -- -- 100
2019-12-07 08:00:00 -0.5 0 Calma 5 Nordeste 0 -- -- 100
2019-12-07 07:00:00 -0.3 2 Sur 3 Norte 0 -- -- 100
2019-12-07 06:00:00 0.2 2 Norte 3 Noroeste 0 -- -- 100
2019-12-07 05:00:00 1.3 0 Calma 3 Noroeste 0 -- -- 100
2019-12-07 04:00:00 2.3 0 Calma 4 Sudeste 0 -- -- 100
2019-12-07 03:00:00 3.3 0 Calma 8 Sudeste 0 -- -- 100
2019-12-07 02:00:00 3.4 0 Calma 6 Norte 0 -- -- 100
2019-12-07 01:00:00 1.9 2 Norte 6 Noroeste 0 -- -- 100
2019-12-07 00:00:00 1.4 0 Calma 3 Sudeste 0 -- -- 100
2019-12-06 23:00:00 1.6 3 Norte 6 Este 0 -- -- 100
2019-12-06 22:00:00 2.5 0 Calma 3 Sudeste 0 -- -- 100
2019-12-06 21:00:00 3.4 5 Noroeste 8 Noroeste 0 -- -- 99
2019-12-06 20:00:00 2.8 2 Oeste 4 Noroeste 0 -- -- 99
2019-12-06 19:00:00 4 0 Calma 6 Noroeste 0 -- -- 98
2019-12-06 18:00:00 6.3 2 Sudoeste 5 Sudoeste 0 -- -- 91
2019-12-06 17:00:00 9.3 3 Sur 9 Sur 0 -- -- 80
2019-12-06 16:00:00 11 5 Sur 8 Sudeste 0 -- -- 72
2019-12-06 15:00:00 9 0 Calma 6 Sur 0 -- -- 78
2019-12-06 14:00:00 9 3 Sudoeste 6 Oeste 0 -- -- 77
2019-12-06 13:00:00 8 2 Sudoeste 8 Sudeste 0 -- -- 78
2019-12-06 12:00:00 7.6 4 Este 9 Este 0 -- -- 80
2019-12-06 11:00:00 5.1 5 Nordeste 8 Nordeste 0 -- -- 85
2019-12-06 10:00:00 3.5 6 Este 10 Este 0 -- -- 90
2019-12-06 09:00:00 0.2 3 Nordeste 6 Este 0 -- -- 100
2019-12-06 08:00:00 -0.7 0 Calma 5 Nordeste 0 -- -- 98
2019-12-06 07:00:00 0 3 Norte 9 Este 0 -- -- 97
2019-12-06 06:00:00 0.7 3 Nordeste 10 Norte 0 -- -- 96
2019-12-06 05:00:00 1 8 Noroeste 13 Norte 0 -- -- 97
2019-12-06 04:00:00 1.7 3 Norte 13 Nordeste 0 -- -- 96
2019-12-06 03:00:00 2.9 6 Nordeste 12 Nordeste 0 -- -- 94
2019-12-06 02:00:00 3.6 7 Nordeste 14 Nordeste 0 -- -- 93
2019-12-06 01:00:00 3.5 7 Nordeste 19 Nordeste 0 -- -- 94
2019-12-06 00:00:00 4 11 Nordeste 18 Este 0 -- -- 93
2019-12-05 23:00:00 3.8 8 Nordeste 15 Nordeste 0 -- -- 94
2019-12-05 22:00:00 4.3 9 Nordeste 21 Nordeste 0 -- -- 95
2019-12-05 21:00:00 5.1 9 Nordeste 19 Nordeste 0 -- -- 93
2019-12-05 20:00:00 5.6 10 Nordeste 17 Nordeste 0 -- -- 92
2019-12-05 19:00:00 6.1 12 Nordeste 23 Nordeste 0 -- -- 90
2019-12-05 18:00:00 7 13 Nordeste 35 Nordeste 0 -- -- 86
2019-12-05 17:00:00 8.9 16 Nordeste 32 Nordeste 0 -- -- 77
2019-12-05 16:00:00 9.8 17 Este 41 Este 0 -- -- 73
2019-12-05 15:00:00 9.3 17 Este 39 Este 0 -- -- 74
2019-12-05 14:00:00 8.6 21 Nordeste 44 Nordeste 0 -- -- 77
2019-12-05 13:00:00 8.3 19 Nordeste 38 Este 0 -- -- 78
2019-12-05 12:00:00 8.4 18 Este 41 Este 0 -- -- 76
2019-12-05 11:00:00 6.6 15 Nordeste 34 Nordeste 0 -- -- 87
2019-12-05 10:00:00 6.1 19 Nordeste 41 Este 0 -- -- 90
2019-12-05 09:00:00 5 15 Nordeste 29 Este 0 -- -- 92
2019-12-05 08:00:00 -0.1 2 Noroeste 5 Norte 0 -- -- 96
2019-12-05 07:00:00 -0.2 2 Noroeste 8 Norte 0 -- -- 95
2019-12-05 06:00:00 1 5 Nordeste 9 Nordeste 0 -- -- 92
2019-12-05 05:00:00 0.8 6 Norte 9 Noroeste 0 -- -- 96
2019-12-05 04:00:00 0.3 3 Oeste 9 Nordeste 0 -- -- 97
2019-12-05 03:00:00 1.5 6 Nordeste 10 Norte 0 -- -- 91
2019-12-05 02:00:00 1.8 5 Nordeste 15 Este 0 -- -- 93
2019-12-05 01:00:00 2.3 5 Nordeste 12 Este 0 -- -- 91
2019-12-05 00:00:00 2.1 8 Nordeste 15 Nordeste 0 -- -- 89
2019-12-04 23:00:00 2 4 Nordeste 13 Nordeste 0 -- -- 89
2019-12-04 22:00:00 3.4 10 Nordeste 17 Nordeste 0 -- -- 84
2019-12-04 21:00:00 4.4 8 Este 17 Nordeste 0 -- -- 78
2019-12-04 20:00:00 5.1 5 Este 18 Nordeste 0 -- -- 75
2019-12-04 19:00:00 6.7 10 Nordeste 18 Nordeste 0 -- -- 73
2019-12-04 18:00:00 7.4 6 Nordeste 13 Nordeste 0 -- -- 80
2019-12-04 17:00:00 9.3 8 Norte 15 Nordeste 0 -- -- 80
2019-12-04 16:00:00 10.4 10 Norte 17 Nordeste 0 -- -- 72
2019-12-04 15:00:00 9.4 10 Norte 17 Nordeste 0 -- -- 76
2019-12-04 14:00:00 8.9 9 Nordeste 17 Norte 0 -- -- 78
2019-12-04 13:00:00 7.4 10 Nordeste 17 Norte 0 -- -- 85
2019-12-04 12:00:00 5.7 9 Nordeste 17 Nordeste 0 -- -- 86
2019-12-04 11:00:00 3.5 9 Norte 17 Nordeste 0 -- -- 89
2019-12-04 10:00:00 2.2 8 Norte 13 Nordeste 0 -- -- 90
2019-12-04 09:00:00 0.3 3 Norte 9 Nordeste 0 -- -- 95
2019-12-04 08:00:00 0 6 Norte 10 Norte 0 -- -- 94
2019-12-04 07:00:00 0.3 4 Norte 13 Nordeste 0 -- -- 93
2019-12-04 06:00:00 -0.4 5 Nordeste 12 Este 0 -- -- 94
2019-12-04 05:00:00 0.4 7 Nordeste 14 Este 0 -- -- 91
2019-12-04 04:00:00 0.6 8 Nordeste 16 Nordeste 0 -- -- 92
2019-12-04 03:00:00 0.9 8 Nordeste 15 Nordeste 0 -- -- 92
2019-12-04 02:00:00 0.7 6 Nordeste 14 Nordeste 0 -- -- 93
2019-12-04 01:00:00 0 9 Nordeste 24 Este 0 -- -- 93
2019-12-04 00:00:00 0.2 10 Nordeste 19 Este 0 -- -- 92
2019-12-03 23:00:00 0.2 14 Nordeste 23 Nordeste 0 -- -- 92
2019-12-03 22:00:00 0.3 8 Nordeste 22 Este 0 -- -- 91
2019-12-03 21:00:00 0.7 9 Nordeste 18 Nordeste 0 -- -- 89
2019-12-03 20:00:00 0.7 7 Este 15 Este 0 -- -- 90
2019-12-03 19:00:00 1.3 8 Este 17 Nordeste 0 -- -- 89
2019-12-03 18:00:00 2.7 9 Este 19 Este 0 -- -- 85
2019-12-03 17:00:00 5.1 10 Este 31 Este 0 -- -- 73
2019-12-03 16:00:00 5.4 14 Este 32 Este 0 -- -- 71
2019-12-03 15:00:00 5.4 14 Este 31 Nordeste 0 -- -- 71
2019-12-03 14:00:00 4.2 12 Este 36 Este 0 -- -- 76
2019-12-03 13:00:00 4 15 Este 32 Este 0 -- -- 76
2019-12-03 12:00:00 3.9 16 Este 35 Este 0 -- -- 76
2019-12-03 11:00:00 3.6 16 Nordeste 32 Este 0 -- -- 78
2019-12-03 10:00:00 3.2 15 Nordeste 31 Nordeste 0 -- -- 82
2019-12-03 09:00:00 2.4 9 Nordeste 30 Este 0 -- -- 85
2019-12-03 08:00:00 2.2 17 Este 34 Este 0 -- -- 84
2019-12-03 07:00:00 1.6 14 Nordeste 35 Nordeste 0 -- -- 88
2019-12-03 06:00:00 1.7 13 Este 33 Nordeste 0 -- -- 85
2019-12-03 05:00:00 0.3 5 Este 18 Este 0 -- -- 93
2019-12-03 04:00:00 1.4 10 Nordeste 22 Nordeste 0 -- -- 89
2019-12-03 03:00:00 0.8 8 Nordeste 14 Nordeste 0 -- -- 93
2019-12-03 02:00:00 0.2 6 Nordeste 22 Nordeste 0 -- -- 93
2019-12-03 01:00:00 1.4 13 Nordeste 22 Este 0 -- -- 88
2019-12-03 00:00:00 1.6 4 Este 36 Nordeste 0 -- -- 86
2019-12-02 23:00:00 2.5 21 Este 42 Este 0 -- -- 80
2019-12-02 22:00:00 2.5 19 Nordeste 37 Nordeste 0 -- -- 82
2019-12-02 21:00:00 2.6 18 Nordeste 37 Nordeste 0 -- -- 80
2019-12-02 20:00:00 2.9 10 Este 31 Este 0 -- -- 85
2019-12-02 19:00:00 3.8 17 Este 48 Este 0 -- -- 78
2019-12-02 18:00:00 4.9 21 Nordeste 42 Este 0 -- -- 81
2019-12-02 17:00:00 7 20 Este 44 Este 0 -- -- 74
2019-12-02 16:00:00 7.9 25 Nordeste 49 Nordeste 0 -- -- 72
2019-12-02 15:00:00 8.2 23 Este 55 Nordeste 0 -- -- 69
2019-12-02 14:00:00 8.5 22 Nordeste 48 Nordeste 0 -- -- 73
2019-12-02 13:00:00 8.3 24 Nordeste 46 Este 0 -- -- 75
2019-12-02 12:00:00 7.8 26 Nordeste 44 Nordeste 0 -- -- 79
2019-12-02 11:00:00 6.6 24 Nordeste 40 Nordeste 0 -- -- 86
2019-12-02 10:00:00 5.4 15 Nordeste 24 Nordeste 0 -- -- 90
2019-12-02 09:00:00 4.6 14 Nordeste 26 Nordeste 0 -- -- 91
2019-12-02 08:00:00 3.8 14 Nordeste 29 Este 0 -- -- 91
2019-12-02 07:00:00 3.2 13 Nordeste 23 Nordeste 0 -- -- 93
2019-12-02 06:00:00 3.3 14 Nordeste 24 Nordeste 0 -- -- 93
2019-12-02 05:00:00 2.3 5 Este 22 Nordeste 0 -- -- 93
2019-12-02 04:00:00 2.7 8 Nordeste 16 Nordeste 0 -- -- 95
2019-12-02 03:00:00 3.5 11 Nordeste 23 Nordeste 0 -- -- 93
2019-12-02 02:00:00 3.9 10 Nordeste 21 Nordeste 0 -- -- 93
2019-12-02 01:00:00 4.4 14 Nordeste 25 Nordeste 0 -- -- 90
2019-12-02 00:00:00 5.1 11 Nordeste 17 Nordeste 0.2 -- -- 93
2019-12-01 23:00:00 5.5 9 Nordeste 18 Nordeste 0 -- -- 91
2019-12-01 22:00:00 5.9 15 Nordeste 27 Nordeste 0 -- -- 87
2019-12-01 21:00:00 5.4 9 Nordeste 21 Nordeste 0 -- -- 92
2019-12-01 20:00:00 4.7 6 Nordeste 10 Nordeste 0 -- -- 98
2019-12-01 19:00:00 4.8 5 Nordeste 8 Nordeste 0 -- -- 95
2019-12-01 18:00:00 5.6 6 Nordeste 11 Nordeste 0 -- -- 96
2019-12-01 17:00:00 6.5 6 Nordeste 17 Nordeste 0 -- -- 92
2019-12-01 16:00:00 6.9 9 Nordeste 16 Este 0 -- -- 90
2019-12-01 15:00:00 6.7 10 Este 17 Nordeste 0.4 -- -- 92
2019-12-01 14:00:00 6.2 6 Este 14 Este 0.2 -- -- 96
2019-12-01 13:00:00 5.7 9 Sudeste 19 Sudeste 0.4 -- -- 99
2019-12-01 12:00:00 5.8 8 Sudeste 19 Sudeste 1 -- -- 100
2019-12-01 11:00:00 5.7 8 Este 18 Sudeste 0.8 -- -- 100
2019-12-01 10:00:00 5.5 7 Sudeste 14 Sudeste 0.8 -- -- 100
2019-12-01 09:00:00 5 8 Sudeste 20 Sudeste 1.6 -- -- 100
2019-12-01 08:00:00 5 11 Sudeste 20 Sur 1.2 -- -- 100
2019-12-01 07:00:00 5.2 13 Sur 26 Sur 0.4 -- -- 98
2019-12-01 06:00:00 5.3 13 Sur 23 Sur 1 -- -- 98
2019-12-01 05:00:00 5.6 12 Sur 24 Sur 1 -- -- 98
2019-12-01 04:00:00 5.4 13 Sur 24 Sudoeste 0 -- -- 97
2019-12-01 03:00:00 5.3 11 Sudoeste 21 Sudoeste 0 -- -- 97
2019-12-01 02:00:00 5.4 11 Sur 24 Sudoeste 0 -- -- 96
2019-12-01 01:00:00 5 20 Sudoeste 25 Sudoeste 0 -- -- 97
2019-12-01 00:00:00 4.4 15 Sudoeste 24 Sudoeste 0 -- -- 97
2019-11-30 23:00:00 4.5 13 Sudoeste 26 Sudoeste 0 -- -- 96
2019-11-30 22:00:00 5.3 21 Sudoeste 28 Sudoeste 0 -- -- 93
2019-11-30 21:00:00 5.3 13 Sudoeste 24 Sudoeste 0 -- -- 97
2019-11-30 20:00:00 6 9 Sudoeste 34 Oeste 0 -- -- 96
2019-11-30 19:00:00 6.8 21 Sudoeste 37 Oeste 0 -- -- 93
2019-11-30 18:00:00 7.7 21 Oeste 41 Sudoeste 0 -- -- 86
2019-11-30 17:00:00 9.6 24 Sudoeste 39 Sudoeste 0 -- -- 82
2019-11-30 16:00:00 9.1 21 Sudoeste 27 Oeste 0.2 -- -- 85
2019-11-30 15:00:00 8.9 23 Noroeste 53 Oeste 1.6 -- -- 93
2019-11-30 14:00:00 11.1 33 Oeste 49 Oeste 0.2 -- -- 84
2019-11-30 13:00:00 11.3 32 Oeste 63 Sudoeste 2.6 -- -- 92
2019-11-30 12:00:00 11.9 34 Sudoeste 57 Sudoeste 0 -- -- 99
2019-11-30 11:00:00 11.6 29 Sudoeste 50 Sudoeste 0 -- -- 97
2019-11-30 10:00:00 11.4 33 Sudoeste 48 Sudoeste 0.2 -- -- 99
2019-11-30 09:00:00 10.8 27 Sudoeste 40 Sur 0.4 -- -- 100
2019-11-30 08:00:00 10.7 23 Sudoeste 37 Sudoeste 0.4 -- -- 99
2019-11-30 07:00:00 10.5 19 Sudoeste 38 Sudoeste 0.6 -- -- 99
2019-11-30 06:00:00 10.9 23 Sudoeste 38 Sudoeste 0 -- -- 97
2019-11-30 05:00:00 11 29 Sudoeste 45 Sudoeste 0 -- -- 97
2019-11-30 04:00:00 11.3 30 Sudoeste 41 Sudoeste 0 -- -- 97
2019-11-30 03:00:00 11.3 30 Sudoeste 41 Sudoeste 0 -- -- 100
2019-11-30 02:00:00 11.1 24 Sudoeste 39 Sudoeste 0.4 -- -- 100
2019-11-30 01:00:00 10.3 5 Sur 12 Sudoeste 0.2 -- -- 100
2019-11-30 00:00:00 10.3 9 Sudoeste 15 Sur 1.8 -- -- 100
2019-11-29 23:00:00 9.1 2 Nordeste 4 Este 1 -- -- 100
2019-11-29 22:00:00 8.9 3 Este 5 Sudeste 0 -- -- 99
2019-11-29 21:00:00 8.9 2 Este 10 Sudoeste 0 -- -- 97
2019-11-29 20:00:00 9.7 5 Sudoeste 9 Sur 0 -- -- 95
2019-11-29 19:00:00 10.1 6 Sudoeste 10 Sudoeste 0 -- -- 94
2019-11-29 18:00:00 10.9 2 Sudoeste 9 Oeste 0 -- -- 93
2019-11-29 17:00:00 12.5 6 Oeste 17 Sudoeste 0 -- -- 82
2019-11-29 16:00:00 13.7 8 Sudoeste 17 Sudoeste 0 -- -- 77
2019-11-29 15:00:00 13.3 10 Sudoeste 16 Sudoeste 0 -- -- 76
2019-11-29 14:00:00 12.3 0 Calma 9 Norte 0 -- -- 83
2019-11-29 13:00:00 13.8 3 Sudoeste 7 Noroeste 0 -- -- 77
2019-11-29 12:00:00 12.9 5 Sudoeste 12 Noroeste 0 -- -- 84
2019-11-29 11:00:00 10.6 8 Noroeste 10 Noroeste 0 -- -- 100
2019-11-29 10:00:00 8.9 7 Oeste 13 Sudoeste 0 -- -- 100
2019-11-29 09:00:00 8.1 9 Sudoeste 10 Sudoeste 0 -- -- 100
2019-11-29 08:00:00 7.6 3 Noroeste 8 Noroeste 0 -- -- 100
2019-11-29 07:00:00 8.4 5 Oeste 10 Sudoeste 0 -- -- 100
2019-11-29 06:00:00 8.9 6 Sudoeste 19 Sudoeste 0 -- -- 100
2019-11-29 05:00:00 9.6 15 Sudoeste 19 Sudoeste 0 -- -- 100
2019-11-29 04:00:00 9.6 11 Oeste 26 Oeste 0 -- -- 100
2019-11-29 03:00:00 9.9 17 Oeste 30 Sudoeste 0 -- -- 100
2019-11-29 02:00:00 10.1 21 Sudoeste 37 Oeste 0 -- -- 100
2019-11-29 01:00:00 10.4 25 Sudoeste 39 Sudoeste 0 -- -- 100
2019-11-29 00:00:00 10.3 28 Sudoeste 45 Sudoeste 0 -- -- 100
2019-11-28 23:00:00 10.1 31 Sudoeste 55 Sudoeste 0 -- -- 100
2019-11-28 22:00:00 10 33 Sudoeste 50 Sudoeste 0.4 -- -- 100
2019-11-28 21:00:00 10 34 Sudoeste 51 Sudoeste 0.6 -- -- 99
2019-11-28 20:00:00 10 32 Sudoeste 44 Sudoeste 0.2 -- -- 99
2019-11-28 19:00:00 9.9 26 Sudoeste 40 Sudoeste 0 -- -- 100
2019-11-28 18:00:00 10 27 Sudoeste 39 Sudoeste 2.2 -- -- 100
2019-11-28 17:00:00 10.5 27 Sudoeste 41 Sudoeste 0.2 -- -- 96
2019-11-28 16:00:00 11.4 29 Sudoeste 52 Sudoeste 0 -- -- 88
2019-11-28 15:00:00 11.2 33 Sudoeste 45 Sudoeste 0 -- -- 90
2019-11-28 14:00:00 10.8 29 Sudoeste 62 Sudoeste 0 -- -- 92
2019-11-28 13:00:00 10.7 38 Sudoeste 53 Sudoeste 0 -- -- 93
2019-11-28 12:00:00 10.5 39 Sudoeste 50 Sudoeste 0 -- -- 93
2019-11-28 11:00:00 10 35 Sudoeste 47 Sudoeste 0 -- -- 95
2019-11-28 10:00:00 9.5 31 Sudoeste 58 Sudoeste 0 -- -- 98
2019-11-28 09:00:00 9.1 38 Sudoeste 53 Sudoeste 0 -- -- 98
2019-11-28 08:00:00 9 39 Sudoeste 57 Sudoeste 0 -- -- 99
2019-11-28 07:00:00 8.7 35 Sudoeste 48 Sudoeste 0 -- -- 99
2019-11-28 06:00:00 8.3 28 Sudoeste 38 Sudoeste 0 -- -- 100
2019-11-28 05:00:00 8.4 27 Sudoeste 40 Sudoeste 0 -- -- 100
2019-11-28 04:00:00 8.4 32 Sudoeste 46 Sudoeste 0 -- -- 98
2019-11-28 03:00:00 8.3 33 Sudoeste 53 Sudoeste 0.2 -- -- 96
2019-11-28 02:00:00 8.3 39 Sudoeste 55 Sudoeste 0 -- -- 96
2019-11-28 01:00:00 8.1 39 Sudoeste 58 Sudoeste 0 -- -- 96
2019-11-28 00:00:00 7.6 36 Sudoeste 52 Sudoeste 0 -- -- 97
2019-11-27 23:00:00 7.9 33 Sudoeste 45 Sudoeste 0 -- -- 96
2019-11-27 22:00:00 7.6 30 Sudoeste 42 Sudoeste 0 -- -- 97
2019-11-27 21:00:00 8 30 Sudoeste 49 Sudoeste 0 -- -- 94
2019-11-27 20:00:00 8.2 34 Sudoeste 45 Sudoeste 0 -- -- 91
2019-11-27 19:00:00 8.7 32 Sudoeste 43 Oeste 0 -- -- 90
2019-11-27 18:00:00 9 32 Sudoeste 46 Sudoeste 0.2 -- -- 93
2019-11-27 17:00:00 8.7 34 Sudoeste 53 Sudoeste 0.2 -- -- 98
2019-11-27 16:00:00 9 35 Sudoeste 53 Sudoeste 0 -- -- 96
2019-11-27 15:00:00 9.3 34 Sudoeste 48 Sudoeste 0 -- -- 93
2019-11-27 14:00:00 9.4 33 Sudoeste 50 Sudoeste 0 -- -- 94
2019-11-27 06:00:00 6.1 26 Sudoeste 51 Sudoeste 0 -- -- 95
2019-11-27 05:00:00 6.5 32 Sudoeste 45 Sudoeste 0 -- -- 92
2019-11-27 04:00:00 6.4 35 Sudoeste 46 Sudoeste 0 -- -- 91
2019-11-27 03:00:00 6.9 28 Sudoeste 47 Sudoeste 0 -- -- 92
2019-11-27 02:00:00 7.5 30 Sudoeste 47 Sudoeste 0 -- -- 93
2019-11-27 01:00:00 8.2 33 Sudoeste 50 Sudoeste 0 -- -- 93
2019-11-27 00:00:00 8.4 37 Sudoeste 54 Sudoeste 0 -- -- 91
2019-11-26 23:00:00 9 41 Sudoeste 53 Sudoeste 0 -- -- 94
2019-11-26 22:00:00 9.3 37 Sudoeste 58 Oeste 0.2 -- -- 93
2019-11-26 21:00:00 9.6 32 Sudoeste 59 Sudoeste 1.6 -- -- 98
2019-11-26 20:00:00 11 40 Sudoeste 68 Sudoeste 0 -- -- 88
2019-11-26 19:00:00 11 41 Sudoeste 57 Sudoeste 0 -- -- 87
2019-11-26 18:00:00 11.8 37 Sudoeste 73 Sudoeste 0 -- -- 94
2019-11-26 17:00:00 12.3 40 Sudoeste 59 Oeste 13.8 -- -- 100
2019-11-26 16:00:00 12.3 37 Sudoeste 56 Sudoeste 11.6 -- -- 100
2019-11-26 15:00:00 12.8 28 Sudoeste 45 Sudoeste 0.6 -- -- 98
2019-11-26 14:00:00 12.4 25 Sudoeste 44 Sudoeste 0.8 -- -- 99
2019-11-26 13:00:00 12.2 28 Sudoeste 48 Sudoeste 0 -- -- 97
2019-11-26 12:00:00 12.1 35 Sudoeste 48 Sudoeste 0 -- -- 97
2019-11-26 11:00:00 12 26 Sudoeste 39 Sudoeste 0 -- -- 95
2019-11-26 10:00:00 10.9 21 Sudoeste 39 Sudoeste 0 -- -- 100
2019-11-26 09:00:00 10.2 16 Sudoeste 40 Sudoeste 1.4 -- -- 100
2019-11-26 08:00:00 10.1 23 Sudoeste 32 Sudoeste 0 -- -- 99
2019-11-26 07:00:00 9.4 18 Sudoeste 28 Sudoeste 0 -- -- 99
2019-11-26 06:00:00 9 10 Sur 19 Sur 0 -- -- 99
2019-11-26 05:00:00 9.1 13 Sudoeste 27 Sudoeste 0 -- -- 97
2019-11-26 04:00:00 9.1 17 Sudoeste 39 Sudoeste 0 -- -- 96
2019-11-26 03:00:00 9 15 Sudoeste 27 Sudoeste 0 -- -- 98
2019-11-26 02:00:00 8.9 14 Sudoeste 20 Sudoeste 0 -- -- 98
2019-11-26 01:00:00 8.7 10 Sudoeste 23 Sudoeste 0 -- -- 98
2019-11-26 00:00:00 7.9 16 Sudoeste 21 Sudoeste 0 -- -- 97
2019-11-25 23:00:00 7.4 9 Sur 21 Sudoeste 0 -- -- 96
2019-11-25 22:00:00 8.1 14 Sudoeste 25 Sudoeste 0 -- -- 95
2019-11-25 21:00:00 8.2 15 Sudoeste 26 Sudoeste 0 -- -- 95
2019-11-25 20:00:00 8.7 18 Sudoeste 27 Sudoeste 0 -- -- 94
2019-11-25 19:00:00 9.4 18 Sudoeste 26 Sudoeste 0 -- -- 92
2019-11-25 18:00:00 9.9 17 Sudoeste 29 Sudoeste 0 -- -- 89
2019-11-25 17:00:00 11 21 Sudoeste 34 Sudoeste 0 -- -- 84
2019-11-25 16:00:00 11.8 20 Sudoeste 36 Sudoeste 0 -- -- 82
2019-11-25 15:00:00 12.4 29 Oeste 38 Sudoeste 0 -- -- 78
2019-11-25 14:00:00 12.8 28 Oeste 37 Oeste 0 -- -- 76
2019-11-25 13:00:00 12.5 24 Oeste 39 Oeste 0 -- -- 78
2019-11-25 12:00:00 12.4 27 Sudoeste 42 Oeste 0 -- -- 80
2019-11-25 11:00:00 11.5 28 Oeste 35 Oeste 0 -- -- 91
2019-11-25 10:00:00 10.3 24 Sudoeste 36 Sudoeste 0 -- -- 96
2019-11-25 09:00:00 9 22 Sudoeste 33 Sudoeste 0 -- -- 99
2019-11-25 08:00:00 8.3 27 Sudoeste 39 Sudoeste 0 -- -- 99
2019-11-25 07:00:00 8.2 27 Sudoeste 33 Sudoeste 0 -- -- 100
2019-11-25 06:00:00 8.1 23 Sudoeste 34 Sudoeste 0 -- -- 99
2019-11-25 05:00:00 8.4 24 Sudoeste 35 Sudoeste 0 -- -- 99
2019-11-25 04:00:00 8.4 24 Sudoeste 46 Sudoeste 0 -- -- 99
2019-11-25 03:00:00 9 31 Sudoeste 42 Sudoeste 0 -- -- 100
2019-11-25 02:00:00 8.9 36 Sudoeste 50 Sudoeste 0 -- -- 100
2019-11-25 01:00:00 8.6 29 Sudoeste 37 Sudoeste 0.2 -- -- 100
2019-11-25 00:00:00 7.8 24 Sudoeste 30 Sudoeste 0.2 -- -- 99
2019-11-24 23:00:00 7.9 21 Sudoeste 30 Sudoeste 0.2 -- -- 98
2019-11-24 22:00:00 7.5 22 Sudoeste 33 Sudoeste 0 -- -- 98
2019-11-24 21:00:00 7.5 19 Sudoeste 28 Sudoeste 0 -- -- 97
2019-11-24 20:00:00 7.3 10 Sur 22 Sudoeste 0.4 -- -- 97
2019-11-24 19:00:00 7.1 10 Sudoeste 22 Sudoeste 0.2 -- -- 95
2019-11-24 18:00:00 7.5 18 Sudoeste 30 Sudoeste 0 -- -- 91
2019-11-24 17:00:00 7.7 19 Sudoeste 36 Sudoeste 0 -- -- 91
2019-11-24 16:00:00 7.6 25 Sudoeste 37 Sudoeste 0 -- -- 87
2019-11-24 15:00:00 7.7 24 Sudoeste 34 Sudoeste 0 -- -- 86
2019-11-24 14:00:00 7.7 26 Sudoeste 34 Sudoeste 0 -- -- 87
2019-11-24 13:00:00 6.4 24 Sudoeste 33 Sudoeste 0 -- -- 91
2019-11-24 12:00:00 5.7 23 Sudoeste 30 Sudoeste 0 -- -- 93
2019-11-24 11:00:00 5 19 Sudoeste 28 Sudoeste 0 -- -- 95
2019-11-24 10:00:00 3.2 17 Sudoeste 26 Sudoeste 0 -- -- 97
2019-11-24 09:00:00 2.1 18 Sudoeste 25 Sudoeste 0 -- -- 95
2019-11-24 08:00:00 2 15 Sudoeste 27 Oeste 0 -- -- 94
2019-11-24 07:00:00 2.3 22 Oeste 33 Oeste 0 -- -- 94
2019-11-24 06:00:00 2 26 Oeste 35 Oeste 0 -- -- 97
2019-11-24 05:00:00 2.1 23 Oeste 34 Oeste 0 -- -- 97
2019-11-24 04:00:00 2.1 22 Oeste 32 Sudoeste 0 -- -- 95
2019-11-24 03:00:00 1.9 19 Oeste 28 Sudoeste 0 -- -- 97
2019-11-24 02:00:00 2.9 16 Oeste 26 Sudoeste 0 -- -- 90
2019-11-24 01:00:00 2.3 18 Sudoeste 22 Oeste 0 -- -- 94
2019-11-24 00:00:00 2.8 13 Sudoeste 18 Sudoeste 0 -- -- 89
2019-11-23 23:00:00 3.3 12 Sudoeste 26 Oeste 0 -- -- 89
2019-11-23 22:00:00 4.1 14 Oeste 25 Oeste 0 -- -- 87
2019-11-23 21:00:00 4.8 18 Oeste 35 Noroeste 0 -- -- 84
2019-11-23 20:00:00 5.4 23 Oeste 37 Oeste 0 -- -- 83
2019-11-23 19:00:00 5.8 29 Oeste 38 Oeste 0 -- -- 81
2019-11-23 18:00:00 6.3 21 Oeste 49 Noroeste 0 -- -- 80
2019-11-23 17:00:00 8.2 32 Noroeste 49 Oeste 0 -- -- 72
2019-11-23 16:00:00 9.5 30 Oeste 44 Oeste 0 -- -- 66
2019-11-23 15:00:00 9.2 32 Noroeste 64 Oeste 0 -- -- 67
2019-11-23 14:00:00 9.4 36 Oeste 50 Oeste 0 -- -- 69
2019-11-23 13:00:00 9.2 31 Noroeste 45 Oeste 0 -- -- 68
2019-11-23 12:00:00 8.2 31 Oeste 49 Oeste 0 -- -- 71
2019-11-23 11:00:00 7.2 32 Oeste 44 Oeste 0 -- -- 77
2019-11-23 10:00:00 5.3 24 Oeste 44 Oeste 0 -- -- 82
2019-11-23 09:00:00 3.9 30 Oeste 40 Oeste 0 -- -- 84
2019-11-23 08:00:00 3.8 32 Oeste 52 Oeste 0 -- -- 82
2019-11-23 07:00:00 4.5 37 Oeste 55 Oeste 0 -- -- 79
2019-11-23 06:00:00 4.5 37 Oeste 50 Oeste 0 -- -- 80
2019-11-23 05:00:00 4.8 35 Oeste 63 Oeste 0 -- -- 82
2019-11-23 04:00:00 4.4 35 Oeste 67 Oeste 0 -- -- 89
2019-11-23 03:00:00 5.2 39 Oeste 60 Oeste 0 -- -- 86
2019-11-23 02:00:00 5.5 42 Oeste 55 Oeste 0 -- -- 87
2019-11-23 01:00:00 5.8 42 Oeste 61 Sudoeste 0 -- -- 90
2019-11-23 00:00:00 6.3 39 Sudoeste 50 Sudoeste 0 -- -- 88
2019-11-22 23:00:00 6.8 35 Sudoeste 52 Sudoeste 0 -- -- 94
2019-11-22 22:00:00 6.7 38 Sudoeste 57 Sudoeste 0.2 -- -- 94
2019-11-22 21:00:00 7.3 35 Sudoeste 58 Sudoeste 0 -- -- 95
2019-11-22 20:00:00 7.5 41 Sudoeste 53 Sudoeste 0 -- -- 91
2019-11-22 19:00:00 7 33 Sudoeste 51 Sudoeste 0 -- -- 89
2019-11-22 18:00:00 8 35 Sudoeste 55 Sudoeste 0 -- -- 83
2019-11-22 17:00:00 10 36 Oeste 59 Sudoeste 0 -- -- 78
2019-11-22 16:00:00 11.2 42 Sudoeste 64 Sudoeste 0 -- -- 79
2019-11-22 15:00:00 12.6 45 Sudoeste 59 Sudoeste 0 -- -- 87
2019-11-22 14:00:00 11.5 43 Sudoeste 60 Sudoeste 0.4 -- -- 95
2019-11-22 13:00:00 9.8 29 Sudoeste 50 Sudeste 2.8 -- -- 99
2019-11-22 12:00:00 9.7 30 Sur 48 Sur 0.4 -- -- 92
2019-11-22 11:00:00 8.2 28 Sur 49 Sudeste 0 -- -- 92
2019-11-22 10:00:00 7.2 30 Sur 44 Sudeste 0 -- -- 94
2019-11-22 09:00:00 6.5 25 Sur 46 Sur 0.2 -- -- 100
2019-11-22 08:00:00 6.3 24 Sur 34 Sur 1.8 -- -- 100
2019-11-22 07:00:00 6.4 17 Sur 28 Sur 1.6 -- -- 100
2019-11-22 06:00:00 5.8 12 Sur 19 Sur 2 -- -- 99
2019-11-22 05:00:00 5.8 10 Sur 18 Sur 0.6 -- -- 99
2019-11-22 04:00:00 5.9 11 Sur 18 Sur 0.2 -- -- 97
2019-11-22 03:00:00 5.5 7 Sur 20 Sudoeste 0 -- -- 97
2019-11-22 02:00:00 5.7 13 Sudoeste 21 Sudoeste 0 -- -- 96
2019-11-22 01:00:00 5.4 10 Sudoeste 16 Sudoeste 0 -- -- 95
2019-11-22 00:00:00 4.4 6 Sur 10 Sur 0 -- -- 93
2019-11-21 23:00:00 4 5 Sudeste 12 Sur 0 -- -- 94
2019-11-21 22:00:00 4.1 7 Sur 13 Sudoeste 0 -- -- 92
2019-11-21 21:00:00 4.4 8 Sur 15 Sudoeste 0 -- -- 92
2019-11-21 20:00:00 4.4 8 Sudoeste 22 Sudoeste 0 -- -- 91
2019-11-21 19:00:00 5.7 15 Sudoeste 19 Sudoeste 0 -- -- 88
2019-11-21 18:00:00 7.3 12 Sudoeste 24 Sudoeste 0 -- -- 82
2019-11-21 17:00:00 9 15 Sudoeste 35 Sudoeste 0 -- -- 68
2019-11-21 16:00:00 9.5 19 Oeste 28 Oeste 0 -- -- 67
2019-11-21 15:00:00 9.3 22 Oeste 40 Sudoeste 0 -- -- 65
2019-11-21 14:00:00 9.6 22 Sudoeste 33 Sudoeste 0 -- -- 68
2019-11-21 13:00:00 9 24 Sudoeste 31 Sudoeste 0 -- -- 71
2019-11-21 12:00:00 7.6 14 Oeste 27 Sudoeste 0 -- -- 85
2019-11-21 11:00:00 6.5 19 Oeste 27 Sudoeste 0 -- -- 91
2019-11-21 10:00:00 5.7 19 Sudoeste 28 Sudoeste 0.2 -- -- 99
2019-11-21 09:00:00 5 20 Sudoeste 32 Sudoeste 0 -- -- 99
2019-11-21 08:00:00 -- -- -- -- -- -- -- -- --
2019-11-21 07:00:00 -- -- -- -- -- -- -- -- --
2019-11-21 06:00:00 -- -- -- -- -- -- -- -- --
2019-11-21 05:00:00 -- -- -- -- -- -- -- -- --
2019-11-21 04:00:00 -- -- -- -- -- -- -- -- --
2019-11-21 03:00:00 -- -- -- -- -- -- -- -- --
2019-11-21 02:00:00 -- -- -- -- -- -- -- -- --
2019-11-21 01:00:00 -- -- -- -- -- -- -- -- --
2019-11-21 00:00:00 -- -- -- -- -- -- -- -- --
2019-11-20 23:00:00 -- -- -- -- -- -- -- -- --
2019-11-20 22:00:00 -- -- -- -- -- -- -- -- --
2019-11-20 21:00:00 -- -- -- -- -- -- -- -- --
2019-11-20 20:00:00 -- -- -- -- -- -- -- -- --
2019-11-20 19:00:00 5.5 7 Sur 15 Sur 0 -- -- 99
2019-11-20 18:00:00 5.3 8 Sur 18 Sudoeste 0 -- -- 99
2019-11-20 17:00:00 5.5 10 Sur 23 Sudoeste 0.4 -- -- 99
2019-11-20 16:00:00 5.7 15 Sur 28 Sudoeste 0.2 -- -- 99
2019-11-20 15:00:00 5.7 18 Sudoeste 24 Sudoeste 0.2 -- -- 100
2019-11-20 14:00:00 5.6 14 Sudoeste 32 Sudoeste 3.2 -- -- 99
2019-11-20 13:00:00 5.5 17 Sudoeste 26 Sudoeste 1.2 -- -- 98
2019-11-20 12:00:00 5.6 12 Sur 23 Sur 0.6 -- -- 99
2019-11-20 11:00:00 5.2 13 Sur 23 Sur 0.4 -- -- 99
2019-11-20 10:00:00 4.6 8 Sur 12 Sur 0.8 -- -- 100
2019-11-20 09:00:00 4 8 Sudeste 11 Sudeste 1.2 -- -- 99
2019-11-20 08:00:00 4.1 5 Sudeste 11 Sudeste 0.2 -- -- 99
2019-11-20 07:00:00 4 5 Sudeste 9 Sudeste 0.4 -- -- 98
2019-11-20 06:00:00 4.1 5 Sudeste 7 Sur 0 -- -- 98
2019-11-20 05:00:00 3.9 5 Sur 7 Sudeste 0 -- -- 98
2019-11-20 04:00:00 3.7 4 Sur 9 Sur 0 -- -- 98
2019-11-20 03:00:00 4.2 4 Sur 7 Sur 0.2 -- -- 96
2019-11-20 02:00:00 4.2 0 Calma 5 Oeste 0 -- -- 96
2019-11-20 01:00:00 4.3 0 Calma 4 Sudeste 0 -- -- 94
2019-11-20 00:00:00 4.5 2 Este 6 Sudeste 0 -- -- 93
2019-11-19 23:00:00 4.4 3 Sudeste 8 Sur 0 -- -- 93
2019-11-19 22:00:00 4.6 5 Sur 9 Sur 0 -- -- 92
2019-11-19 21:00:00 4.4 2 Sudeste 5 Sudeste 0 -- -- 93
2019-11-19 20:00:00 4.7 0 Calma 6 Sur 0 -- -- 92
2019-11-19 19:00:00 5 4 Sur 5 Sur 0 -- -- 90
2019-11-19 18:00:00 5 3 Sudoeste 9 Sudoeste 0 -- -- 90
2019-11-19 17:00:00 6.3 7 Sudoeste 17 Sudoeste 0 -- -- 83
2019-11-19 16:00:00 6.9 8 Oeste 15 Oeste 0 -- -- 81
2019-11-19 15:00:00 7 9 Sudoeste 14 Oeste 0 -- -- 82
2019-11-19 14:00:00 6.7 9 Sudoeste 13 Sudoeste 0 -- -- 78
2019-11-19 13:00:00 6 4 Sudoeste 8 Sur 0 -- -- 84
2019-11-19 12:00:00 4.8 4 Sudoeste 8 Sur 0 -- -- 85
2019-11-19 11:00:00 1.4 5 Sudeste 7 Este 0 -- -- 97
2019-11-19 10:00:00 -0.5 3 Noroeste 4 Noroeste 0 -- -- 99
2019-11-19 09:00:00 -1.7 0 Calma 3 Noroeste 0 -- -- 100
2019-11-19 08:00:00 -2.1 0 Calma 3 Norte 0 -- -- 99
2019-11-19 07:00:00 -1.8 0 Calma 3 Norte 0 -- -- 99
2019-11-19 06:00:00 -2.1 2 Norte 6 Noroeste 0 -- -- 99
2019-11-19 05:00:00 -2.5 3 Nordeste 5 Este 0 -- -- 99
2019-11-19 04:00:00 -2.4 0 Calma 4 Este 0 -- -- 100
2019-11-19 03:00:00 -1.8 3 Este 4 Este 0 -- -- 100
2019-11-19 02:00:00 -1.5 0 Calma 3 Noroeste 0 -- -- 98
2019-11-19 01:00:00 -1.2 0 Calma 3 Oeste 0 -- -- 99
2019-11-19 00:00:00 -0.7 0 Calma 3 Norte 0 -- -- 98
2019-11-18 23:00:00 -0.3 2 Norte 5 Nordeste 0 -- -- 97
2019-11-18 22:00:00 0.1 0 Calma 4 Norte 0 -- -- 97
2019-11-18 21:00:00 1.4 0 Calma 5 Noroeste 0 -- -- 95
2019-11-18 20:00:00 3.8 2 Este 11 Este 0 -- -- 89
2019-11-18 19:00:00 5.2 7 Nordeste 22 Nordeste 0 -- -- 86
2019-11-18 18:00:00 6.5 4 Oeste 11 Sudeste 0 -- -- 81
2019-11-18 17:00:00 8.8 5 Sudeste 13 Este 0 -- -- 70
2019-11-18 16:00:00 10.3 8 Este 17 Norte 0 -- -- 61
2019-11-18 15:00:00 9.3 6 Norte 17 Norte 0 -- -- 62
2019-11-18 14:00:00 9.1 6 Norte 14 Nordeste 0 -- -- 64
2019-11-18 13:00:00 7.9 6 Norte 15 Noroeste 0 -- -- 74
2019-11-18 12:00:00 6.7 9 Norte 17 Norte 0 -- -- 77
2019-11-18 11:00:00 5.4 8 Norte 14 Noroeste 0 -- -- 82
2019-11-18 10:00:00 3.2 5 Noroeste 8 Noroeste 0 -- -- 87
2019-11-18 09:00:00 -0.3 3 Noroeste 7 Oeste 0 -- -- 99
2019-11-18 08:00:00 -1.1 5 Sudoeste 13 Sudeste 0 -- -- 98
2019-11-18 07:00:00 -0.9 5 Sur 9 Sudeste 0 -- -- 98
2019-11-18 06:00:00 -0.5 0 Calma 9 Nordeste 0 -- -- 96
2019-11-18 05:00:00 1 4 Norte 12 Nordeste 0 -- -- 95
2019-11-18 04:00:00 0.2 7 Noroeste 11 Noroeste 0 -- -- 97
2019-11-18 03:00:00 0.6 6 Noroeste 14 Norte 0 -- -- 95
2019-11-18 02:00:00 1.8 7 Norte 24 Noroeste 0 -- -- 94
2019-11-18 01:00:00 1.5 15 Noroeste 19 Noroeste 0 -- -- 96
2019-11-18 00:00:00 2 7 Noroeste 25 Noroeste 0 -- -- 93
2019-11-17 23:00:00 2.9 17 Oeste 23 Oeste 0 -- -- 89
2019-11-17 22:00:00 2.8 14 Oeste 23 Noroeste 0 -- -- 89
2019-11-17 21:00:00 3.9 17 Noroeste 28 Oeste 0 -- -- 83
2019-11-17 20:00:00 3.9 17 Oeste 32 Oeste 0 -- -- 86
2019-11-17 19:00:00 4.5 22 Oeste 37 Oeste 0 -- -- 86
2019-11-17 18:00:00 6.5 20 Noroeste 33 Oeste 0 -- -- 81
2019-11-17 17:00:00 8.7 24 Noroeste 39 Noroeste 0 -- -- 76
2019-11-17 16:00:00 10 21 Noroeste 48 Noroeste 0 -- -- 73
2019-11-17 15:00:00 9.7 23 Oeste 39 Oeste 0 -- -- 86
2019-11-17 14:00:00 8.8 23 Oeste 44 Sudoeste 0 -- -- 92
2019-11-17 13:00:00 7.5 27 Sudoeste 42 Oeste 0 -- -- 94
2019-11-17 12:00:00 6.2 32 Oeste 42 Sudoeste 0.2 -- -- 98
2019-11-17 11:00:00 5 29 Sudoeste 41 Sudoeste 0.2 -- -- 99
2019-11-17 10:00:00 4.6 27 Sudoeste 38 Sudoeste 0.4 -- -- 99
2019-11-17 09:00:00 4.1 25 Sudoeste 35 Sudoeste 0.2 -- -- 99
2019-11-17 08:00:00 3.5 23 Sudoeste 37 Sudoeste 0.4 -- -- 97
2019-11-17 07:00:00 3.3 23 Sudoeste 35 Sudoeste 0 -- -- 97
2019-11-17 06:00:00 3.4 23 Sudoeste 30 Sudoeste 0 -- -- 94
2019-11-17 05:00:00 3 19 Sudoeste 26 Sudoeste 0 -- -- 95
2019-11-17 04:00:00 2.1 20 Sudoeste 25 Sudoeste 0 -- -- 97
2019-11-17 03:00:00 1.3 15 Sudoeste 26 Oeste 0 -- -- 96
2019-11-17 02:00:00 1.5 15 Oeste 21 Sudoeste 0 -- -- 93
2019-11-17 01:00:00 1.7 11 Sudoeste 17 Sudoeste 0 -- -- 93
2019-11-17 00:00:00 2.2 12 Sudoeste 22 Sudoeste 0 -- -- 89
2019-11-16 23:00:00 2.9 13 Sudoeste 20 Sudoeste 0 -- -- 87
2019-11-16 22:00:00 3.1 13 Oeste 24 Oeste 0 -- -- 84
2019-11-16 21:00:00 2.6 15 Oeste 19 Oeste 0 -- -- 83
2019-11-16 20:00:00 2 10 Oeste 24 Noroeste 0 -- -- 87
2019-11-16 19:00:00 4.1 17 Noroeste 23 Noroeste 0 -- -- 75
2019-11-16 18:00:00 4.3 14 Noroeste 29 Noroeste 0 -- -- 75
2019-11-16 17:00:00 6.6 21 Noroeste 36 Noroeste 0 -- -- 69
2019-11-16 16:00:00 7.1 24 Noroeste 33 Oeste 0 -- -- 62
2019-11-16 15:00:00 7.1 25 Noroeste 39 Noroeste 0 -- -- 65
2019-11-16 14:00:00 7.1 24 Oeste 35 Noroeste 0 -- -- 66
2019-11-16 13:00:00 7 30 Noroeste 42 Oeste 0 -- -- 72
2019-11-16 12:00:00 6.1 23 Noroeste 32 Noroeste 0 -- -- 78
2019-11-16 11:00:00 3.3 17 Oeste 26 Oeste 0 -- -- 87
2019-11-16 10:00:00 2.3 16 Oeste 21 Oeste 0 -- -- 86
2019-11-16 09:00:00 0.1 10 Sudoeste 18 Oeste 0 -- -- 93
2019-11-16 08:00:00 -0.3 11 Oeste 21 Noroeste 0 -- -- 95
2019-11-16 07:00:00 -0.6 12 Noroeste 20 Oeste 0 -- -- 95
2019-11-16 06:00:00 -0.5 13 Noroeste 23 Noroeste 0 -- -- 95
2019-11-16 05:00:00 -0.6 13 Noroeste 19 Noroeste 0 -- -- 95
2019-11-16 04:00:00 -0.3 15 Noroeste 24 Noroeste 0 -- -- 95
2019-11-16 03:00:00 0.1 15 Noroeste 23 Oeste 0 -- -- 94
2019-11-16 02:00:00 0.3 17 Noroeste 23 Noroeste 0 -- -- 95
2019-11-16 01:00:00 0.1 15 Oeste 33 Noroeste 0 -- -- 94
2019-11-16 00:00:00 0.6 19 Noroeste 24 Noroeste 0 -- -- 93
2019-11-15 23:00:00 0.6 12 Noroeste 18 Noroeste 0 -- -- 92
2019-11-15 22:00:00 1.3 13 Noroeste 31 Noroeste 0 -- -- 92
2019-11-15 21:00:00 2 19 Noroeste 28 Noroeste 0 -- -- 89
2019-11-15 20:00:00 2.8 15 Noroeste 27 Noroeste 0 -- -- 86
2019-11-15 19:00:00 3.3 18 Noroeste 28 Noroeste 0 -- -- 83
2019-11-15 18:00:00 4 17 Noroeste 38 Noroeste 0 -- -- 80
2019-11-15 17:00:00 5.2 25 Noroeste 37 Noroeste 0 -- -- 73
2019-11-15 16:00:00 6.6 26 Noroeste 38 Oeste 0 -- -- 68
2019-11-15 15:00:00 6.9 29 Noroeste 40 Noroeste 0 -- -- 67
2019-11-15 14:00:00 6.5 29 Noroeste 42 Noroeste 0 -- -- 70
2019-11-15 13:00:00 6 30 Oeste 43 Oeste 0 -- -- 71
2019-11-15 12:00:00 5.4 30 Oeste 49 Oeste 0 -- -- 77
2019-11-15 11:00:00 4.6 29 Oeste 41 Oeste 0 -- -- 80
2019-11-15 10:00:00 2.9 23 Oeste 35 Oeste 0 -- -- 85
2019-11-15 09:00:00 1.2 19 Oeste 34 Noroeste 0 -- -- 93
2019-11-15 08:00:00 1.3 24 Oeste 33 Oeste 0 -- -- 94
2019-11-15 07:00:00 1.1 21 Oeste 33 Oeste 0 -- -- 95
2019-11-15 06:00:00 1.5 23 Oeste 31 Oeste 0 -- -- 93
2019-11-15 05:00:00 1.3 20 Oeste 30 Oeste 0 -- -- 94
2019-11-15 04:00:00 1.2 21 Oeste 34 Noroeste 0 -- -- 95
2019-11-15 03:00:00 1.1 21 Noroeste 38 Oeste 0 -- -- 96
2019-11-15 02:00:00 1.6 29 Noroeste 39 Noroeste 0 -- -- 95
2019-11-15 01:00:00 1.5 27 Noroeste 37 Noroeste 0.4 -- -- 96
2019-11-15 00:00:00 1.6 23 Noroeste 39 Noroeste 0 -- -- 95
2019-11-14 23:00:00 2.4 27 Noroeste 40 Noroeste 0 -- -- 93
2019-11-14 22:00:00 2.3 29 Noroeste 48 Noroeste 0 -- -- 93
2019-11-14 21:00:00 2.4 28 Noroeste 43 Noroeste 0 -- -- 92
2019-11-14 20:00:00 2.5 17 Noroeste 31 Noroeste 0 -- -- 93
2019-11-14 19:00:00 2.5 22 Noroeste 41 Noroeste 0.2 -- -- 92
2019-11-14 18:00:00 3.7 28 Noroeste 44 Oeste 0 -- -- 89
2019-11-14 17:00:00 3.5 36 Oeste 50 Noroeste 0 -- -- 90
2019-11-14 16:00:00 3 30 Oeste 54 Oeste 1.4 -- -- 95
2019-11-14 15:00:00 2 21 Oeste 51 Oeste 3.2 -- -- 96
2019-11-14 14:00:00 5.7 38 Oeste 65 Sudoeste 0 -- -- 72
2019-11-14 13:00:00 5.3 39 Sudoeste 57 Sudoeste 0 -- -- 75
2019-11-14 12:00:00 5.4 38 Oeste 51 Sudoeste 0 -- -- 78
2019-11-14 11:00:00 4.8 34 Oeste 45 Oeste 0 -- -- 82
2019-11-14 10:00:00 2.9 23 Oeste 38 Oeste 0 -- -- 85
2019-11-14 09:00:00 2 18 Oeste 25 Oeste 0 -- -- 85
2019-11-14 08:00:00 1.6 16 Oeste 39 Oeste 0 -- -- 87
2019-11-14 07:00:00 2.6 22 Noroeste 56 Oeste 0 -- -- 83
2019-11-14 06:00:00 3.7 29 Oeste 50 Noroeste 0 -- -- 85
2019-11-14 05:00:00 4.6 28 Noroeste 45 Oeste 0 -- -- 85
2019-11-14 04:00:00 5.2 39 Oeste 62 Oeste 3.8 -- -- 88
2019-11-14 03:00:00 6.5 33 Oeste 67 Sudoeste 0.2 -- -- 94
2019-11-14 02:00:00 6.9 43 Sudoeste 61 Sudoeste 0 -- -- 87
2019-11-14 01:00:00 6.4 39 Sudoeste 51 Sudoeste 0 -- -- 88
2019-11-14 00:00:00 6.3 34 Sudoeste 48 Sudoeste 0 -- -- 84
2019-11-13 23:00:00 5.9 31 Sudoeste 40 Sudoeste 0 -- -- 88
2019-11-13 22:00:00 6.2 20 Sudoeste 28 Oeste 0 -- -- 89
2019-11-13 21:00:00 7 20 Oeste 33 Oeste 0 -- -- 80
2019-11-13 20:00:00 7.7 18 Oeste 26 Oeste 0 -- -- 81
2019-11-13 19:00:00 8.4 15 Oeste 19 Oeste 0 -- -- 82
2019-11-13 18:00:00 10 9 Oeste 18 Noroeste 0 -- -- 81
2019-11-13 17:00:00 12 12 Oeste 27 Sudoeste 0 -- -- 77
2019-11-13 16:00:00 12.5 19 Sudoeste 33 Sudoeste 0 -- -- 73
2019-11-13 15:00:00 13.2 18 Sudoeste 25 Sudoeste 0 -- -- 67
2019-11-13 14:00:00 11.4 15 Oeste 22 Sur 0 -- -- 73
2019-11-13 13:00:00 12.2 13 Sudoeste 19 Sudoeste 0 -- -- 70
2019-11-13 12:00:00 12.5 5 Sur 10 Sudeste 0.2 -- -- 69
2019-11-13 11:00:00 11.2 5 Este 11 Este 0 -- -- 74
2019-11-13 10:00:00 9.9 5 Nordeste 9 Nordeste 0 -- -- 80
2019-11-13 09:00:00 5.7 2 Norte 8 Norte 0 -- -- 99
2019-11-13 08:00:00 5.9 4 Norte 15 Noroeste 0 -- -- 99
2019-11-13 07:00:00 6.8 13 Norte 22 Noroeste 0 -- -- 99
2019-11-13 06:00:00 8.1 13 Norte 22 Oeste 0 -- -- 99
2019-11-13 05:00:00 9.5 17 Oeste 36 Oeste 0 -- -- 99
2019-11-13 04:00:00 9.7 24 Oeste 36 Oeste 0 -- -- 100
2019-11-13 03:00:00 9.6 21 Oeste 42 Sudoeste 0.4 -- -- 100
2019-11-13 02:00:00 9.3 33 Sudoeste 53 Sudoeste 1 -- -- 100
2019-11-13 01:00:00 9 37 Sudoeste 54 Sudoeste 0.6 -- -- 100
2019-11-13 00:00:00 8.4 33 Sudoeste 53 Sudoeste 0.2 -- -- 99
2019-11-12 23:00:00 7.8 33 Sudoeste 48 Sudoeste 0 -- -- 100
2019-11-12 22:00:00 7.4 35 Sudoeste 52 Sudoeste 0 -- -- 100
2019-11-12 21:00:00 7 39 Sudoeste 51 Oeste 0.4 -- -- 99
2019-11-12 20:00:00 6.7 36 Sudoeste 46 Sudoeste 0.8 -- -- 99
2019-11-12 19:00:00 6.7 29 Sudoeste 40 Sudoeste 0.6 -- -- 96
2019-11-12 18:00:00 7.3 27 Sudoeste 49 Sudoeste 0.4 -- -- 94
2019-11-12 17:00:00 9 27 Sudoeste 40 Sudoeste 0 -- -- 76
2019-11-12 16:00:00 9.9 27 Sudoeste 36 Sudoeste 0 -- -- 68
2019-11-12 15:00:00 10.1 24 Sudoeste 32 Sudoeste 0 -- -- 62
2019-11-12 14:00:00 9.9 22 Oeste 32 Oeste 0 -- -- 64
2019-11-12 13:00:00 9.1 18 Oeste 29 Oeste 0 -- -- 65
2019-11-12 12:00:00 8.2 21 Noroeste 33 Oeste 0 -- -- 69
2019-11-12 11:00:00 7.2 20 Oeste 30 Oeste 0 -- -- 72
2019-11-12 10:00:00 5.5 17 Oeste 23 Noroeste 0 -- -- 79
2019-11-12 09:00:00 4 13 Noroeste 30 Oeste 0 -- -- 85
2019-11-12 08:00:00 3.9 18 Oeste 23 Oeste 0 -- -- 83
2019-11-12 07:00:00 4 13 Noroeste 19 Oeste 0 -- -- 86
2019-11-12 06:00:00 4.1 10 Noroeste 16 Noroeste 0 -- -- 85
2019-11-12 05:00:00 4.1 8 Oeste 13 Noroeste 0 -- -- 84
2019-11-12 04:00:00 3.1 2 Oeste 10 Sudoeste 0 -- -- 88
2019-11-12 03:00:00 2.8 9 Oeste 13 Oeste 0 -- -- 89
2019-11-12 02:00:00 2.7 9 Sudoeste 14 Sudoeste 0 -- -- 88
2019-11-12 01:00:00 2.5 6 Sudeste 18 Norte 0 -- -- 85
2019-11-12 00:00:00 3.2 10 Norte 15 Nordeste 0 -- -- 82
2019-11-11 23:00:00 2.2 4 Norte 13 Norte 0 -- -- 84
2019-11-11 22:00:00 3.2 9 Norte 20 Norte 0 -- -- 81
2019-11-11 21:00:00 4.5 10 Norte 22 Norte 0 -- -- 74
2019-11-11 20:00:00 5.5 13 Norte 19 Norte 0 -- -- 74
2019-11-11 19:00:00 5.7 9 Noroeste 16 Norte 0 -- -- 72
2019-11-11 18:00:00 8.3 10 Norte 29 Norte 0 -- -- 62
2019-11-11 17:00:00 10.6 19 Norte 27 Norte 0 -- -- 59
2019-11-11 16:00:00 12.5 12 Norte 24 Norte 0 -- -- 53
2019-11-11 15:00:00 12.2 15 Norte 35 Norte 0 -- -- 58
2019-11-11 14:00:00 12.7 13 Norte 26 Norte 0 -- -- 61
2019-11-11 13:00:00 11 11 Noroeste 20 Noroeste 0 -- -- 79
2019-11-11 12:00:00 9.4 9 Noroeste 23 Oeste 0 -- -- 88
2019-11-11 11:00:00 7.9 18 Oeste 23 Oeste 0 -- -- 96
2019-11-11 10:00:00 6.7 16 Sudoeste 24 Sudoeste 0 -- -- 99
2019-11-11 09:00:00 5.9 15 Sudoeste 21 Sudoeste 0 -- -- 98
2019-11-11 08:00:00 5.2 12 Sudoeste 19 Sudoeste 0 -- -- 98
2019-11-11 07:00:00 4.8 11 Sudoeste 17 Sudoeste 0 -- -- 97
2019-11-11 06:00:00 4.4 10 Sudoeste 13 Sudoeste 0 -- -- 97
2019-11-11 05:00:00 3.8 8 Sudoeste 11 Sudoeste 0 -- -- 97
2019-11-11 04:00:00 3.4 7 Sudoeste 15 Sudoeste 0 -- -- 95
2019-11-11 03:00:00 3 6 Sudoeste 12 Sudoeste 0 -- -- 96
2019-11-11 02:00:00 2.1 3 Noroeste 10 Sudoeste 0 -- -- 94
2019-11-11 01:00:00 2.2 9 Oeste 14 Sudoeste 0 -- -- 93
2019-11-11 00:00:00 2.6 6 Sudoeste 16 Oeste 0 -- -- 93